| time (UTC) | temp F | wind direction | speed MPH | gust MPH | rain 1hr in | rain 24hr in | rain mn in | humidity % | barometer mb |
| 20260506134529 | 77 | 168 | 8.0 | 23.0 | 0.00 | 0.00 | 0.00 | 36 | 1004.0 |
| 20260506133521 | 77 | 171 | 8.0 | 17.0 | 0.00 | 0.00 | 0.00 | 36 | 1004.0 |
| 20260506132529 | 77 | 178 | 8.0 | 20.0 | 0.00 | 0.00 | 0.00 | 36 | 1004.0 |
| 20260506131521 | 78 | 164 | 7.0 | 17.0 | 0.00 | 0.00 | 0.00 | 35 | 1003.9 |
| 20260506130529 | 77 | 156 | 8.0 | 19.0 | 0.00 | 0.00 | 0.00 | 36 | 1004.0 |
| 20260506125529 | 77 | 162 | 7.0 | 15.0 | 0.00 | 0.00 | 0.00 | 35 | 1004.3 |
| 20260506124522 | 77 | 168 | 7.0 | 18.0 | 0.00 | 0.00 | 0.00 | 34 | 1004.2 |
| 20260506123530 | 77 | 179 | 7.0 | 16.0 | 0.00 | 0.00 | 0.00 | 34 | 1004.4 |
| 20260506122522 | 76 | 167 | 6.0 | 17.0 | 0.00 | 0.00 | 0.00 | 35 | 1004.4 |
| 20260506121529 | 76 | 162 | 7.0 | 17.0 | 0.00 | 0.00 | 0.00 | 35 | 1004.3 |
| 20260506120521 | 76 | 139 | 7.0 | 15.0 | 0.00 | 0.00 | 0.00 | 35 | 1004.5 |
| 20260506115522 | 77 | 154 | 8.0 | 19.0 | 0.00 | 0.00 | 0.00 | 35 | 1004.5 |
| 20260506114529 | 76 | 146 | 6.0 | 18.0 | 0.00 | 0.00 | 0.00 | 35 | 1004.7 |
| 20260506113522 | 76 | 166 | 6.0 | 14.0 | 0.00 | 0.00 | 0.00 | 34 | 1004.9 |
| 20260506112530 | 77 | 144 | 7.0 | 20.0 | 0.00 | 0.00 | 0.00 | 33 | 1005.0 |
| 20260506111521 | 77 | 156 | 7.0 | 15.0 | 0.00 | 0.00 | 0.00 | 32 | 1005.2 |
| 20260506110530 | 77 | 166 | 5.0 | 14.0 | 0.00 | 0.00 | 0.00 | 33 | 1005.2 |
| 20260506105530 | 75 | 132 | 8.0 | 15.0 | 0.00 | 0.00 | 0.00 | 33 | 1005.5 |
| 20260506104522 | 75 | 141 | 7.0 | 17.0 | 0.00 | 0.00 | 0.00 | 32 | 1005.7 |
| 20260506103529 | 75 | 141 | 8.0 | 19.0 | 0.00 | 0.00 | 0.00 | 38 | 1005.9 |
| 20260506102522 | 74 | 140 | 6.0 | 17.0 | 0.00 | 0.00 | 0.00 | 40 | 1006.1 |
| 20260506101529 | 73 | 134 | 7.0 | 15.0 | 0.00 | 0.00 | 0.00 | 41 | 1006.1 |
| 20260506100521 | 73 | 125 | 8.0 | 15.0 | 0.00 | 0.00 | 0.00 | 42 | 1006.4 |
| 20260506095522 | 72 | 131 | 9.0 | 23.0 | 0.00 | 0.00 | 0.00 | 42 | 1006.7 |
| 20260506094530 | 71 | 136 | 8.0 | 15.0 | 0.00 | 0.00 | 0.00 | 45 | 1006.7 |
| 20260506093521 | 72 | 149 | 6.0 | 17.0 | 0.00 | 0.00 | 0.00 | 45 | 1006.9 |
| 20260506092522 | 72 | 116 | 6.0 | 17.0 | 0.00 | 0.00 | 0.00 | 44 | 1007.0 |
| 20260506091530 | 72 | 140 | 7.0 | 15.0 | 0.00 | 0.00 | 0.00 | 44 | 1007.1 |
| 20260506090522 | 72 | 120 | 7.0 | 13.0 | 0.00 | 0.00 | 0.00 | 43 | 1007.2 |
| 20260506085530 | 72 | 110 | 6.0 | 14.0 | 0.00 | 0.00 | 0.00 | 43 | 1007.2 |
| 20260506084521 | 72 | 130 | 6.0 | 14.0 | 0.00 | 0.00 | 0.00 | 41 | 1007.2 |
| 20260506083530 | 72 | 129 | 5.0 | 11.0 | 0.00 | 0.00 | 0.00 | 41 | 1007.2 |
| 20260506082521 | 72 | 144 | 4.0 | 9.0 | 0.00 | 0.00 | 0.00 | 42 | 1007.2 |
| 20260506081529 | 72 | 141 | 4.0 | 10.0 | 0.00 | 0.00 | 0.00 | 41 | 1007.0 |
| 20260506080522 | 73 | 168 | 3.0 | 6.0 | 0.00 | 0.00 | 0.00 | 40 | 1007.2 |
| 20260506072522 | 70 | 150 | 2.0 | 5.0 | 0.00 | 0.00 | 0.00 | 44 | 1007.3 |
| 20260506071530 | 70 | 138 | 3.0 | 6.0 | 0.00 | 0.00 | 0.00 | 43 | 1007.4 |
| 20260506070522 | 69 | 157 | 3.0 | 5.0 | 0.00 | 0.00 | 0.00 | 45 | 1007.6 |
| 20260506061530 | 69 | 110 | 0.0 | 2.0 | 0.00 | 0.00 | 0.00 | 49 | 1007.6 |
| 20260506060522 | 67 | 274 | 0.0 | 3.0 | 0.00 | 0.00 | 0.00 | 52 | 1007.7 |
| 20260506050522 | 61 | 107 | 1.0 | 4.0 | 0.00 | 0.00 | 0.00 | 64 | 1007.8 |
| 20260506044523 | 60 | 66 | 2.0 | 5.0 | 0.00 | 0.00 | 0.00 | 63 | 1007.7 |
| 20260506043530 | 57 | 126 | 2.0 | 5.0 | 0.00 | 0.00 | 0.00 | 69 | 1007.6 |
| 20260506042522 | 56 | 142 | 1.0 | 4.0 | 0.00 | 0.00 | 0.00 | 72 | 1007.5 |
| 20260506041531 | 55 | 167 | 1.0 | 3.0 | 0.00 | 0.00 | 0.00 | 72 | 1007.6 |
| 20260506040522 | 55 | 151 | 1.0 | 4.0 | 0.00 | 0.00 | 0.00 | 71 | 1007.5 |
| 20260506035530 | 55 | 163 | 3.0 | 4.0 | 0.00 | 0.00 | 0.00 | 71 | 1007.4 |
| 20260506034531 | 55 | 123 | 2.0 | 4.0 | 0.00 | 0.00 | 0.00 | 71 | 1007.4 |
| 20260506033522 | 55 | 137 | 2.0 | 3.0 | 0.00 | 0.00 | 0.00 | 70 | 1007.3 |
| 20260506032531 | 55 | 117 | 1.0 | 3.0 | 0.00 | 0.00 | 0.00 | 70 | 1007.3 |
| 20260506031522 | 55 | 77 | 2.0 | 5.0 | 0.00 | 0.00 | 0.00 | 70 | 1007.1 |
| 20260506030530 | 55 | 142 | 3.0 | 5.0 | 0.00 | 0.00 | 0.00 | 70 | 1007.0 |
| 20260506025523 | 55 | 141 | 1.0 | 4.0 | 0.00 | 0.00 | 0.00 | 71 | 1007.1 |
| 20260506024531 | 55 | 114 | 2.0 | 4.0 | 0.00 | 0.00 | 0.00 | 71 | 1007.2 |
| 20260506023523 | 55 | 149 | 2.0 | 5.0 | 0.00 | 0.00 | 0.00 | 71 | 1007.1 |
| 20260506022531 | 55 | 169 | 2.0 | 3.0 | 0.00 | 0.00 | 0.00 | 70 | 1007.0 |
| 20260506021522 | 56 | 155 | 3.0 | 4.0 | 0.00 | 0.00 | 0.00 | 70 | 1007.0 |
| 20260506020531 | 56 | 165 | 2.0 | 4.0 | 0.00 | 0.00 | 0.00 | 70 | 1006.9 |
| 20260506015522 | 56 | 118 | 1.0 | 3.0 | 0.00 | 0.00 | 0.00 | 69 | 1006.8 |
| 20260506014530 | 56 | 142 | 1.0 | 4.0 | 0.00 | 0.00 | 0.00 | 68 | 1006.7 |
| 20260506013523 | 56 | 145 | 2.0 | 4.0 | 0.00 | 0.00 | 0.00 | 69 | 1006.6 |
| 20260506012531 | 56 | 111 | 2.0 | 3.0 | 0.00 | 0.00 | 0.00 | 70 | 1006.5 |
| 20260506011523 | 56 | 81 | 2.0 | 3.0 | 0.00 | 0.00 | 0.00 | 69 | 1006.5 |
| 20260506010530 | 56 | 135 | 1.0 | 3.0 | 0.00 | 0.00 | 0.00 | 69 | 1006.6 |
| 20260506005523 | 56 | 105 | 2.0 | 2.0 | 0.00 | 0.00 | 0.00 | 70 | 1006.5 |
| 20260506004531 | 55 | 132 | 1.0 | 3.0 | 0.00 | 0.00 | 0.00 | 70 | 1006.2 |
| 20260506003522 | 55 | 80 | 1.0 | 2.0 | 0.00 | 0.00 | 0.00 | 70 | 1006.0 |
| 20260506002530 | 55 | 108 | 0.0 | 2.0 | 0.00 | 0.00 | 0.00 | 70 | 1005.9 |
| 20260506001523 | 55 | 113 | 1.0 | 2.0 | 0.00 | 0.00 | 0.00 | 69 | 1005.8 |
| 20260506000531 | 55 | 88 | 1.0 | 2.0 | 0.00 | 0.00 | 0.00 | 69 | 1005.7 |
| 20260505235523 | 55 | 44 | 1.0 | 3.0 | 0.00 | 0.00 | 0.00 | 69 | 1005.7 |
| 20260505234531 | 55 | 55 | 1.0 | 3.0 | 0.00 | 0.00 | 0.00 | 69 | 1005.6 |
| 20260505233522 | 55 | 98 | 0.0 | 2.0 | 0.00 | 0.00 | 0.00 | 70 | 1005.5 |
| 20260505232531 | 55 | 142 | 1.0 | 2.0 | 0.00 | 0.00 | 0.00 | 70 | 1005.4 |
| 20260505231523 | 55 | 120 | 1.0 | 2.0 | 0.00 | 0.00 | 0.00 | 69 | 1005.2 |
| 20260505230531 | 56 | 111 | 1.0 | 3.0 | 0.00 | 0.00 | 0.00 | 68 | 1005.2 |
| 20260505225522 | 56 | 133 | 1.0 | 3.0 | 0.00 | 0.00 | 0.00 | 67 | 1005.2 |
| 20260505224530 | 56 | 130 | 1.0 | 3.0 | 0.00 | 0.00 | 0.00 | 66 | 1005.1 |
| 20260505223523 | 57 | 124 | 1.0 | 2.0 | 0.00 | 0.00 | 0.00 | 64 | 1005.0 |
| 20260505222523 | 58 | 104 | 0.0 | 2.0 | 0.00 | 0.00 | 0.00 | 63 | 1004.8 |
| 20260505221531 | 57 | 140 | 1.0 | 3.0 | 0.00 | 0.00 | 0.00 | 63 | 1004.8 |
| 20260505220523 | 57 | 135 | 1.0 | 3.0 | 0.00 | 0.00 | 0.00 | 63 | 1004.8 |
| 20260505215531 | 57 | 141 | 1.0 | 2.0 | 0.00 | 0.00 | 0.00 | 63 | 1004.6 |
| 20260505214523 | 58 | 39 | 1.0 | 3.0 | 0.00 | 0.00 | 0.00 | 62 | 1004.6 |
| 20260505213531 | 58 | 110 | 2.0 | 3.0 | 0.00 | 0.00 | 0.00 | 61 | 1004.5 |
| 20260505212531 | 61 | 23 | 1.0 | 4.0 | 0.00 | 0.00 | 0.00 | 57 | 1004.4 |
| 20260505211523 | 63 | 136 | 0.0 | 4.0 | 0.00 | 0.00 | 0.00 | 52 | 1004.3 |
| 20260505210531 | 63 | 154 | 2.0 | 5.0 | 0.00 | 0.00 | 0.00 | 51 | 1004.1 |
| 20260505205523 | 64 | 164 | 3.0 | 6.0 | 0.00 | 0.00 | 0.00 | 51 | 1004.0 |
| 20260505204531 | 64 | 167 | 5.0 | 9.0 | 0.00 | 0.00 | 0.00 | 50 | 1003.8 |
| 20260505203522 | 64 | 173 | 5.0 | 10.0 | 0.00 | 0.00 | 0.00 | 50 | 1003.7 |
| 20260505202531 | 64 | 168 | 5.0 | 10.0 | 0.00 | 0.00 | 0.00 | 50 | 1003.7 |
| 20260505201524 | 64 | 175 | 5.0 | 10.0 | 0.00 | 0.00 | 0.00 | 50 | 1003.6 |
| 20260505200531 | 65 | 176 | 5.0 | 10.0 | 0.00 | 0.00 | 0.00 | 50 | 1003.6 |
| 20260505195523 | 65 | 178 | 5.0 | 11.0 | 0.00 | 0.00 | 0.00 | 49 | 1003.6 |
| 20260505194515 | 65 | 175 | 6.0 | 13.0 | 0.00 | 0.00 | 0.00 | 49 | 1003.7 |
| 20260505193524 | 65 | 176 | 6.0 | 12.0 | 0.00 | 0.00 | 0.00 | 49 | 1003.5 |
| 20260505192531 | 65 | 170 | 5.0 | 13.0 | 0.00 | 0.00 | 0.00 | 49 | 1003.4 |
| 20260505191523 | 66 | 177 | 6.0 | 16.0 | 0.00 | 0.00 | 0.00 | 48 | 1003.4 |
| 20260505190532 | 66 | 175 | 6.0 | 13.0 | 0.00 | 0.00 | 0.00 | 48 | 1003.3 |
| 20260505185523 | 66 | 177 | 6.0 | 13.0 | 0.00 | 0.00 | 0.00 | 47 | 1003.4 |
| 20260505184524 | 67 | 181 | 8.0 | 16.0 | 0.00 | 0.00 | 0.00 | 46 | 1003.4 |
| 20260505183531 | 67 | 169 | 6.0 | 13.0 | 0.00 | 0.00 | 0.00 | 46 | 1003.3 |
| 20260505182524 | 67 | 170 | 7.0 | 19.0 | 0.00 | 0.00 | 0.00 | 46 | 1003.2 |
| 20260505181532 | 68 | 160 | 8.0 | 18.0 | 0.00 | 0.00 | 0.00 | 45 | 1003.2 |
| 20260505180523 | 68 | 167 | 7.0 | 14.0 | 0.00 | 0.00 | 0.00 | 45 | 1003.4 |
| 20260505175530 | 68 | 166 | 8.0 | 15.0 | 0.00 | 0.00 | 0.00 | 44 | 1003.3 |
| 20260505174524 | 69 | 172 | 7.0 | 15.0 | 0.00 | 0.00 | 0.00 | 43 | 1003.3 |
| 20260505173523 | 69 | 163 | 8.0 | 17.0 | 0.00 | 0.00 | 0.00 | 43 | 1003.3 |
| 20260505172531 | 69 | 167 | 7.0 | 19.0 | 0.00 | 0.00 | 0.00 | 42 | 1003.5 |
| 20260505171523 | 70 | 156 | 7.0 | 14.0 | 0.00 | 0.00 | 0.00 | 41 | 1003.5 |
| 20260505170531 | 71 | 156 | 6.0 | 17.0 | 0.00 | 0.00 | 0.00 | 41 | 1003.5 |
| 20260505165532 | 71 | 175 | 8.0 | 19.0 | 0.00 | 0.00 | 0.00 | 40 | 1003.5 |
| 20260505164523 | 72 | 163 | 8.0 | 20.0 | 0.00 | 0.00 | 0.00 | 39 | 1003.6 |
| 20260505163531 | 73 | 176 | 9.0 | 21.0 | 0.00 | 0.00 | 0.00 | 38 | 1003.8 |
| 20260505162523 | 73 | 157 | 7.0 | 19.0 | 0.00 | 0.00 | 0.00 | 38 | 1003.9 |
| 20260505161531 | 74 | 164 | 10.0 | 20.0 | 0.00 | 0.00 | 0.00 | 38 | 1004.1 |
| 20260505160524 | 74 | 174 | 7.0 | 17.0 | 0.00 | 0.00 | 0.00 | 38 | 1004.1 |
| 20260505152531 | 75 | 177 | 8.0 | 19.0 | 0.00 | 0.00 | 0.00 | 37 | 1004.5 |
| 20260505151523 | 75 | 167 | 10.0 | 21.0 | 0.00 | 0.00 | 0.00 | 37 | 1004.6 |
| 20260505150531 | 75 | 162 | 8.0 | 21.0 | 0.00 | 0.00 | 0.00 | 36 | 1004.6 |
| 20260505140515 | 79 | 163 | 9.0 | 22.0 | 0.00 | 0.00 | 0.00 | 29 | 1004.3 |